OpenBCM V1.13 (Linux)

Packet Radio Mailbox

DB0FHN

[JN59NK Nuernberg]

 Login: GUEST





  
I0OJJ  > AMSAT    07.09.26 03:03l 325 Lines 15341 Bytes #999 (0) @ WW
BID : 5P6_IR0EQ
Read: OE5RCO DK5SG DJ6UX GUEST
Subj: 2Line Orbital Elements
Path: DB0FHN<DB0RES<GB7CAM<VE3KPG<VE3TOK<VE3CGR<VK2RZ<IR0AAB<IR0EQ
Sent: 260907/0027z @:IR0EQ.ITA.EU [Rome] $:5P6_IR0EQ

>From i0ojj@rgate.ampr.org Mon Sep  7 02:27:22 2026
Received: from rgate.ampr.org by rgate.ampr.org (JNOS2.0q.1) with SMTP
	id AA7386 ; Mon, 07 Sep 2026 02:27:22 +0200
Received: by rgate.ampr.org with SMTP
	id AA7383 ; Mon, 07 Sep 2026 02:27:03 +0200
Message-Id: <7384@rgate.ampr.org>
>From: i0ojj@rgate.ampr.org

SB KEPS @ AMSAT  $ORB26250.1
2Line Orbital Elements 26250.AMSAT

QST de W1STR

AMSAT Orbital Elements for Amateur Satellites in TLE Format
>From Orbital Analysis Office
New England Sci-Tech STEM Education Center
Natick MA September 07, 2026
To all radio amateurs


These element sets describe the orbits of various satellites 
in use by the amateur radio community. For details see:
www.amsat.org/keplerian-elements-formats/

A daily update of element sets is available at:
www.amsat.org/tle/daily-bulletin.txt
or without bulletin text:
www.amsat.org/tle/dailytle.txt


AO-07
1 07530U 74089B   26249.62928978 -.00000035  00000-0  71293-4 0  9992
2 07530 101.9922 263.7276 0012115 337.5402 141.8267 12.53699428370725
UO-11
1 14781U 84021B   26249.83426073  .00000855  00000-0  92267-4 0  9990
2 14781  97.8154 214.5460 0005994 276.3019  83.7517 14.90972846269293
LO-19
1 20442U 90005G   26249.60138699  .00000038  00000-0  30415-4 0  9999
2 20442  98.8831 273.6416 0010959 332.2382  27.8215 14.34142138914063
AO-27
1 22825U 93061C   26249.74030228  .00000026  00000-0  26817-4 0  9993
2 22825  98.6808 317.0949 0007731 214.6463 145.4217 14.30959618718665
FO-29
1 24278U 96046B   26249.48922176 -.00000024  00000-0  14294-4 0  9991
2 24278  98.5177  87.2160 0348918 245.3832 111.0589 13.53277695484162
GO-32
1 25397U 98043D   26249.54586117  .00000027  00000-0  31695-4 0  9997
2 25397  99.0144 244.3837 0001457  28.6433 331.4824 14.24441495462914
ISS
1 25544U 98067A   26249.72428942  .00004390  00000-0  87774-4 0  9994
2 25544  51.6308 256.5398 0005013 114.0700 246.0813 15.49009087584391
NO-44
1 26931U 01043C   26249.80782727  .00000048  00000-0  48873-4 0  9999
2 26931  67.0515  33.1569 0005702 271.5729  88.4720 14.31981323302134
SO-50
1 27607U 02058C   26249.33963231  .00000557  00000-0  83495-4 0  9990
2 27607  64.5505 237.8704 0072473 247.5693 111.7726 14.83196424276494
CO-55
1 27844U 03031E   26249.45328678  .00000164  00000-0  89813-4 0  9992
2 27844  98.6771 257.0026 0008682 315.1002  44.9474 14.24377286203240
RS-22
1 27939U 03042A   26249.84552803  .00000883  00000-0  14386-3 0  9991
2 27939  98.3491  76.5337 0011709  16.0142 108.2060 14.73589885227577
CO-65
1 32785U 08021C   26249.90046045  .00003707  00000-0  23146-3 0  9993
2 32785  97.8363 233.0970 0010345 107.2140 253.0222 15.10102854997520
CO-66
1 32791U 08021J   26249.54111897  .00012310  00000-0  36141-3 0  9997
2 32791  97.7566 251.5048 0003916  57.8765 302.2857 15.35297023999760
RS-30
1 32953U 08025A   26249.86422266 -.00000025  00000-0 -25180-3 0  9994
2 32953  82.5040 304.6436 0020573 131.7431 228.5412 12.43182315829841
SRMSAT
1 37841U 11058D   26249.81515508  .00000350  00000-0  45989-4 0  9991
2 37841  19.9718 285.3875 0011873  23.0654 134.5737 14.11590726769365
ZACUBE-1
1 39417U 13066B   26249.84732347  .00003771  00000-0  28960-3 0  9997
2 39417  97.8102 212.5912 0040717 340.0807  19.8825 15.01736735692981
Delfi-N3xt
1 39428U 13066N   26249.73821340  .00004598  00000-0  39488-3 0  9994
2 39428  97.8297 170.0041 0071306 296.1322  63.2574 14.96008233686817
GOMX-1
1 39430U 13066Q   26249.82392684  .00001165  00000-0  18026-3 0  9993
2 39430  97.6451  85.1422 0128047 174.4872 185.7781 14.69669604681902
LO-74
1 39440U 13066AA  26249.83943074  .00001670  00000-0  15628-3 0  9996
2 39440  97.8970 199.2179 0058399 115.7051 245.0214 14.94221705689189
AO-73
1 39444U 13066AE  26249.83013907  .00004515  00000-0  27474-3 0  9996
2 39444  97.8360 223.0786 0033689 286.7802  72.9731 15.10498570691981
DTUSAT-2
1 40030U 14033W   26249.45055892  .00003737  00000-0  19885-3 0  9993
2 40030  98.0919 252.4171 0006670 329.4750  30.6092 15.15930958664996
LILACSAT-2
1 40908U 15049K   26249.85822293  .00012674  00000-0  19737-3 0  9992
2 40908  97.4581 289.9221 0004978 326.7268  33.3671 15.54020159608427
Lapan A3
1 41603U 16040E   26249.89610895  .00002083  00000-0  66417-4 0  9995
2 41603  97.1558 243.4117 0012109  83.5254 276.7367 15.33552526567332
CAS-2T
1 41847U 16066G   26249.82190668  .00000481  00000-0  77463-4 0  9990
2 41847  98.3763 324.6207 0340161 241.7317 114.9158 14.44828411516587
TechnoSat
1 42829U 17042E   26249.42102584  .00001683  00000-0  12129-3 0  9994
2 42829  97.4392  44.0622 0017721 170.7106 189.4452 15.05361471498927
AO-91
1 43017U 17073E   26249.60883797  .00005390  00000-0  22969-3 0  9992
2 43017  97.4582 115.1617 0148955  47.6724 313.7015 15.13786057477704
S-Net D
1 43186U 18014G   26249.72582212  .00002837  00000-0  14555-3 0  9991
2 43186  97.5261 154.0030 0009865  94.5568 265.6792 15.17316279471126
S-Net B
1 43187U 18014H   26249.67298155  .00003041  00000-0  15590-3 0  9994
2 43187  97.5267 153.9393 0010495  90.7920 269.4516 15.17284021471118
S-Net A
1 43188U 18014J   26249.72425514  .00002816  00000-0  14447-3 0  9991
2 43188  97.5277 154.2151 0010389  91.2631 268.9792 15.17324643471129
S-Net C
1 43189U 18014K   26249.67735416  .00003110  00000-0  15938-3 0  9995
2 43189  97.5296 154.2558 0011743  85.2823 274.9751 15.17274014469667
Ten-Koh
1 43677U 18084G   26249.54003855  .00001103  00000-0  86362-4 0  9995
2 43677  98.0753  85.3442 0008866 195.4475 164.6480 15.03223674428387
PO-101
1 43678U 18084H   26249.85450601  .00000834  00000-0  71025-4 0  9995
2 43678  98.1194  89.6588 0010967 255.6515 104.3490 15.00705130428465
QO-100
1 43700U 18090A   26249.66817531  .00000128  00000-0  00000+0 0  9992
2 43700   0.0163 153.2658 0002545  51.2806  47.5400  1.00270612 28496
MinXSS-2
1 43758U 18099A   26249.45054748  .00029262  00000-0  47647-3 0  9996
2 43758  97.4462 328.4251 0005217 328.4250  31.6689 15.52597117426711
AO-95
1 43770U 18099N   26249.70093338  .00007106  00000-0  26046-3 0  9999
2 43770  97.4309 309.7018 0009680  65.8614 294.3636 15.28264446425664
SNUSat 2
1 43782U 18099AA  26249.57259550  .00004599  00000-0  19872-3 0  9999
2 43782  97.3989 301.7339 0010289  20.1784 339.9857 15.22931726425417
SnugLite
1 43784U 18099AC  26249.67594111  .00006506  00000-0  23576-3 0  9993
2 43784  97.3796 303.2099 0003065  34.8552 325.2888 15.28708965425767
ITASat 1
1 43786U 18099AE  26249.67898370  .00004189  00000-0  19758-3 0  9991
2 43786  97.3959 299.5803 0013818  71.2580 289.0153 15.19936960425280
EAGLET 1
1 43790U 18099AJ  26249.85143852  .00002101  00000-0  12089-3 0  9996
2 43790  97.4161 297.3520 0012511  67.2650 292.9903 15.13462119424688
ESEO
1 43792U 18099AL  26249.66201922  .00000630  00000-0  49121-4 0  9993
2 43792  97.3911 283.5477 0013249  58.9669 301.2856 15.04443691424052
JO-97
1 43803U 18099AX  26249.71817510  .00011488  00000-0  32921-3 0  9990
2 43803  97.4054 312.9419 0004726 355.2492   4.8706 15.36061348426135
Suomi 100
1 43804U 18099AY  26249.73399752  .00007679  00000-0  26567-3 0  9992
2 43804  97.4112 309.8885 0009191   1.3310 358.7953 15.30130997425889
ISAT
1 43879U 18111D   26249.80684450  .00277029  30070-4  95308-3 0  9990
2 43879  97.5772 192.5257 0007348 119.1189 241.0820 15.89552780424011
UWE-4
1 43880U 18111E   26249.76188735  .00027837  00000-0  47746-3 0  9991
2 43880  97.5812 182.2097 0008493  47.1187 313.0777 15.51122616423409
Prox-1
1 44339U 19036A   26249.41063105  .00007600  00000-0  69807-3 0  9991
2 44339  23.9951 290.9383 0004912 254.3038 105.6920 14.92309939385614
Taurus 1
1 44530U 19059C   26249.85437737  .00003171  00000-0  50420-3 0  9993
2 44530  98.6496  59.8377 0009337  59.6812 300.5317 14.72823524370661
TO-108
1 44881U 19093C   26249.82650546  .00000937  00000-0  11149-3 0  9994
2 44881  97.7464 320.0434 0013490 171.8495 188.2942 14.86624999363545
RS-44
1 44909U 19096E   26249.85895889  .00000027  00000-0  71740-4 0  9996
2 44909  82.5185 285.4402 0216638 313.6288  44.7019 12.79749158312799
SALSAT
1 46495U 20068K   26249.55275637  .00004877  00000-0  16642-3 0  9995
2 46495  97.8891 257.6508 0010072  27.2184 332.9581 15.30818273327808
CSS (TIANHE-1)
1 48274U 21035A   26249.83726132  .00015091  00000-0  18766-3 0  9998
2 48274  41.4675 186.3172 0002379 261.1309  98.9260 15.59642029305910
TeikyoSat 4
1 49396U 21102B   26249.64900941  .00000845  00000-0  56039-4 0  9997
2 49396  97.3639 275.9623 0012462  20.3585 339.8139 15.09749849265018
Z-Sat
1 49399U 21102E   26249.84140212  .00001827  00000-0  90787-4 0  9998
2 49399  97.3285 282.6918 0015449 327.5506  32.4778 15.18801142265833
KOSEN 1
1 49402U 21102H   26249.57618566  .00004368  00000-0  16312-3 0  9999
2 49402  97.3128 290.1802 0011512 280.2630  79.7312 15.27841229266446
HO-113
1 50466U 21131B   26249.82852980  .00000362  00000-0  12541-3 0  9991
2 50466  98.4967 341.7745 0003560 197.2447 162.8621 14.41419803246873
SNUGLITE 2
1 52899U 22065F   26249.40901833  .00000532  00000-0  10964-3 0  9992
2 52899  98.2318  34.1547 0008526 124.1134 236.0879 14.64472975222883
UmKA 1 (RS40S)
1 57172U 23091G   26249.85616480  .00003807  00000-0  17156-3 0  9999
2 57172  97.4977 308.2498 0012277 186.8534 173.2536 15.21602237176421
CubeBel-2 (EU11S)
1 57175U 23091K   26249.86618876  .00008510  00000-0  28706-3 0  9993
2 57175  97.4977 313.8844 0009522 176.2883 183.8430 15.30921174176794
RS-38S
1 57189U 23091Z   26249.84110214  .00011764  00000-0  31270-3 0  9994
2 57189  97.5023 321.0724 0007968 132.1509 228.0414 15.38377291177235
SONATE-2
1 59112U 24043Q   26249.37978690  .00034995  00000-0  35618-3 0  9999
2 59112  97.5609  45.1937 0005139 257.1776 102.8909 15.65061047140568
